Location: Unspecified
(42.3650°N, 71.1030°W)
Time: 20:59:10
(UTC+00:00)

Explorer 11/Cluster Stage 4 - Pass Details

Date: 23 June 2024
Orbit: 465 x 1215 km, 28.8° (Epoch: 13 July)

Event Time Altitude Azimuth Distance (km) Brightness Sun altitude
Rises 01:19:53 0° 234° (SW) 4,105 10.4 -8.8°
Reaches altitude 10° 01:23:18 10° 222° (SW) 3,155 9.7 -9.2°
Maximum altitude 01:29:36 26° 171° (S) 2,148 8.4 -10.0°
Enters shadow 01:35:00 12° 121° (ESE) 2,848 8.8 -10.7°
Drops below altitude 10° 01:35:36 10° 118° (ESE) 2,992 - -10.8°
Sets 01:38:44 0° 106° (ESE) 3,854 - -11.2°
